Wind_Speed
94 93 93 93 92 92 92 92 92 92 93 93 93 93 93 93 93 94 94 94 94 95 95 95 96 96 96 97 97 98 98 98 99 99 99 99 99 99 98 98 98 98 97 97 96 96 96 95 95 95 94 94 94 94 94 94 94 94 94 94 94 94 94 95 95 96 96 97 97 98 99 99 100 101 101 102 102 103 104 104 104 105 105 105 105 104
93 92 92 92 92 92 92 92 92 92 93 93 93 93 93 93 94 94 94 94 94 95 95 95 96 96 97 97 97 98 98 99 99 99 99 99 99 98 98 98 98 97 97 97 96 96 96 95 95 95 95 95 95 95 95 94 94 94 94 94 94 94 95 95 96 97 97 98 99 99 100 101 102 102 103 104 104 105 106 106 107 107 107 106 106 106
92 92 91 91 91 91 92 92 92 92 92 93 93 93 93 93 94 94 94 94 94 95 95 96 96 96 97 97 98 98 98 99 99 99 99 99 98 98 98 98 97 97 97 96 96 96 96 95 95 95 95 96 96 95 95 95 95 95 95 95 95 95 96 96 97 98 98 99 100 101 101 102 103 104 105 105 106 107 107 108 108 108 108 108 107 107
91 91 91 91 91 91 91 91 92 92 92 92 93 93 93 93 94 94 94 94 95 95 95 96 96 97 97 97 98 98 98 98 98 98 98 98 98 98 98 97 97 97 96 96 96 96 96 96 96 96 96 96 96 96 96 96 96 95 95 95 96 96 97 97 98 99 100 100 101 102 103 103 104 105 106 107 108 108 109 109 110 110 110 109 109 108
91 91 91 91 91 91 91 91 91 92 92 92 92 92 93 93 93 94 94 94 95 95 96 96 97 97 97 98 98 98 98 98 98 98 98 98 98 97 97 97 97 97 96 96 96 96 96 96 97 97 97 97 97 97 97 97 96 96 96 97 97 98 98 99 100 100 101 102 102 103 104 105 106 107 108 108 109 110 110 111 111 111 110 110 109 108
90 90 90 90 90 91 91 91 91 91 91 92 92 92 93 93 93 94 94 95 95 96 96 96 97 97 97 98 98 98 98 98 98 98 98 98 97 97 97 97 97 97 97 97 97 97 97 97 97 98 98 98 98 98 97 97 97 97 98 98 99 99 100 101 101 102 103 103 104 105 106 107 108 108 109 110 111 111 111 111 111 111 110 110 109 108
89 89 90 90 90 90 90 90 91 91 91 91 92 92 92 93 93 94 94 95 95 96 96 97 97 97 97 97 97 97 97 97 97 97 97 97 97 97 97 97 97 97 97 97 97 98 98 98 98 99 99 99 99 98 98 98 98 99 99 100 100 101 102 102 103 104 105 105 106 107 108 109 110 110 111 112 112 112 112 111 111 110 109 108 107 106
89 89 89 89 89 90 90 90 90 90 90 91 91 92 92 93 93 94 94 95 95 96 96 97 97 97 97 97 97 97 97 97 97 97 97 97 97 97 97 97 97 97 97 98 98 99 99 99 100 100 100 100 100 99 99 99 99 100 100 101 102 103 104 104 105 106 107 108 108 109 110 111 112 112 113 113 113 112 112 111 110 108 107 106 105 104
88 88 89 89 89 89 89 89 89 90 90 90 91 92 92 93 94 94 95 95 95 96 96 97 97 97 97 97 97 96 96 96 96 96 96 96 96 96 97 97 97 98 98 99 99 100 100 100 101 101 101 101 101 101 100 101 101 101 102 103 103 104 105 106 107 108 109 110 110 111 112 113 113 114 114 113 113 112 110 109 108 106 105 103 102 101
87 88 88 88 88 88 88 89 89 89 90 90 91 91 92 93 94 95 95 96 96 96 96 96 97 97 97 97 96 96 96 96 95 95 96 96 96 96 97 97 98 99 99 100 100 101 101 102 102 102 102 102 102 102 102 102 102 103 104 104 105 106 107 108 108 109 110 111 112 113 114 114 114 114 114 113 111 110 108 107 105 103 102 100 99 97
87 87 87 87 87 87 88 88 89 89 89 90 91 91 92 93 93 94 95 96 96 96 96 96 96 96 96 96 96 95 95 95 95 95 95 95 96 96 97 97 98 99 100 101 101 102 102 103 103 103 104 104 104 104 104 104 104 105 105 106 107 107 108 109 110 111 112 113 114 114 115 115 114 113 112 111 109 107 106 104 102 100 98 97 95 94
86 86 86 86 87 87 87 88 88 89 89 90 91 92 92 93 93 94 94 95 96 96 96 96 96 96 96 95 95 95 94 94 95 95 95 96 96 96 97 98 99 100 101 101 102 103 103 104 104 105 105 105 105 105 105 105 105 106 107 107 108 109 110 110 111 112 113 114 115 115 115 114 113 112 110 108 106 105 103 101 99 97 95 94 92 91
85 85 85 86 86 86 87 88 88 89 90 90 91 92 93 93 93 93 94 95 95 95 96 96 96 96 95 94 94 94 94 94 94 95 95 96 96 97 98 99 100 101 102 102 103 103 104 105 105 106 106 107 107 107 106 106 107 107 108 109 109 110 111 112 113 113 114 115 115 115 114 113 111 109 107 105 103 101 99 98 96 94 93 91 89 88
85 85 85 85 86 86 87 88 88 89 90 91 91 92 92 93 93 93 94 94 94 95 95 95 95 95 95 94 93 93 93 93 94 94 95 96 96 97 98 100 101 102 103 103 104 105 105 106 107 107 108 108 108 108 108 108 108 108 109 110 111 111 112 113 113 114 115 115 114 113 112 110 109 107 105 102 100 98 96 94 93 91 90 88 87 85
84 84 84 85 86 86 87 88 88 89 90 91 91 92 92 93 93 93 93 94 94 94 94 94 94 94 94 93 93 92 92 93 93 94 95 96 97 98 99 101 102 103 103 104 105 106 106 107 108 108 109 109 109 109 109 109 109 110 110 111 111 112 113 113 114 114 114 114 113 111 109 107 106 104 102 99 97 95 93 91 90 89 87 86 84 83
83 84 84 85 86 87 87 88 88 89 90 91 91 92 92 93 93 93 93 93 93 93 93 94 94 94 94 93 93 92 92 92 93 94 95 97 98 99 100 101 103 104 104 105 106 107 107 108 109 109 110 110 110 110 110 110 110 111 111 112 112 113 113 114 114 114 113 112 110 108 106 104 103 101 99 97 94 92 90 88 87 86 85 83 82 80
83 84 84 85 86 87 87 88 88 89 90 91 91 91 92 92 92 92 92 92 93 93 93 93 93 94 94 94 93 92 92 92 93 94 96 97 99 100 101 102 104 105 106 106 107 108 108 109 110 110 110 111 111 111 111 111 111 111 112 112 113 113 114 114 114 113 111 109 107 105 103 101 99 98 96 94 92 89 87 85 84 83 82 80 79 77
83 84 85 85 86 87 87 88 88 89 90 90 91 91 91 91 92 92 92 92 92 92 92 92 93 93 93 94 94 93 92 92 93 95 96 98 100 101 102 103 104 105 107 107 108 109 109 110 110 111 111 111 111 112 112 112 112 112 113 113 113 114 114 113 112 111 109 106 104 102 100 98 97 95 93 91 89 87 85 83 81 80 79 77 76 75
83 84 85 85 86 87 87 88 89 89 90 90 90 91 91 91 91 91 91 91 91 92 92 92 93 93 93 93 93 93 92 92 93 95 97 99 101 102 103 104 105 106 107 108 109 109 110 110 111 111 111 112 112 112 112 112 112 113 113 113 114 113 113 112 110 108 105 103 101 99 97 95 94 93 91 89 86 84 82 80 78 77 75 74 73 71
83 84 84 85 86 87 87 88 88 89 89 89 89 90 90 91 91 91 91 91 91 91 92 92 93 93 93 93 93 93 92 93 94 95 97 100 102 103 104 105 106 107 108 108 109 110 110 111 111 111 111 112 112 112 113 113 113 113 113 114 113 113 111 110 107 104 102 99 97 95 94 93 91 90 88 86 83 81 78 77 75 74 72 71 70 68
83 84 84 85 85 86 87 88 88 88 88 88 89 89 89 90 90 90 91 91 91 92 92 92 93 93 93 93 93 93 93 93 94 96 98 100 102 103 104 105 106 107 108 109 109 110 110 110 111 111 111 112 112 113 113 113 113 113 113 113 113 111 109 107 104 101 98 96 94 92 91 90 89 88 86 83 80 77 75 73 72 71 69 68 67 65
83 83 84 84 85 86 87 87 87 87 87 87 88 88 89 89 90 90 90 91 91 92 92 93 93 93 93 93 93 93 93 94 95 97 99 101 103 104 104 105 106 107 108 109 109 109 110 110 110 111 111 112 112 113 113 113 113 113 113 113 111 109 106 103 100 97 94 92 90 89 88 87 87 86 83 80 77 74 71 70 69 68 66 65 64 63
82 83 84 84 85 85 86 86 86 86 86 87 87 87 88 88 89 90 90 91 91 92 93 93 93 93 93 93 93 93 93 94 95 97 99 101 103 104 104 105 106 107 107 108 108 109 109 110 110 110 111 111 112 113 113 114 114 113 113 111 109 106 103 100 97 93 91 88 86 85 84 84 84 83 81 77 74 70 68 66 66 65 64 63 62 61
81 82 83 84 84 85 85 85 85 85 86 86 86 87 88 88 89 89 90 91 91 92 92 93 93 93 93 93 93 94 94 95 96 97 99 101 103 104 104 105 105 106 107 107 108 108 109 109 109 110 110 111 112 113 114 114 114 113 111 109 106 103 100 97 93 90 87 85 83 82 81 81 81 80 78 75 71 68 65 64 63 62 62 61 60 59
81 82 83 83 84 84 84 84 84 85 85 85 86 87 87 88 89 90 90 91 91 92 92 92 93 93 93 93 94 94 95 95 96 97 99 101 102 103 104 104 105 105 106 106 107 107 108 108 108 109 110 111 112 113 114 114 113 112 109 106 103 100 97 93 90 87 84 81 79 78 77 77 77 76 75 72 69 65 63 61 60 60 59 59 58 57
80 81 82 82 83 83 83 83 83 84 84 85 86 86 87 88 89 90 90 91 91 91 92 92 92 92 93 93 94 95 95 96 96 98 99 101 102 103 104 104 104 104 105 105 106 106 107 107 108 109 109 111 112 113 114 113 112 110 107 104 100 97 94 91 87 84 81 79 76 74 73 73 73 72 71 69 66 64 61 59 58 58 57 57 56 56
80 81 81 81 82 82 82 82 83 83 84 85 85 86 87 88 89 90 90 91 91 91 91 92 92 92 93 94 94 95 96 96 97 98 99 100 102 103 103 103 103 103 104 104 105 105 106 107 107 108 109 110 112 112 113 112 110 107 104 101 98 95 92 89 85 82 78 76 73 71 69 68 68 68 68 66 64 62 60 58 56 56 55 55 55 54
79 80 80 80 80 81 81 82 82 83 84 84 85 86 87 87 88 89 90 90 91 91 91 91 91 92 93 94 95 95 96 96 97 98 99 100 101 102 103 103 102 102 102 103 103 104 105 106 106 107 108 110 111 111 111 109 107 104 102 99 96 94 91 87 84 80 77 73 70 67 66 65 64 64 64 63 62 60 58 57 55 54 53 53 53 52
79 79 79 79 80 80 81 82 82 83 84 84 85 86 86 87 88 89 89 90 90 90 90 91 91 92 93 94 94 95 96 96 97 98 99 100 101 102 102 102 102 101 101 102 102 103 103 104 105 106 107 109 109 109 108 107 104 102 99 97 95 92 89 86 83 79 76 72 68 65 62 61 61 61 61 60 59 58 57 55 54 53 52 51 51 51
78 78 78 79 79 80 81 81 82 83 84 84 85 86 86 87 87 88 88 89 89 90 90 91 91 92 93 94 95 95 96 96 97 97 98 99 100 101 101 101 101 101 101 101 101 102 102 103 104 105 106 107 107 107 106 104 102 99 97 94 92 90 88 85 82 79 75 71 67 63 61 59 58 58 57 57 56 56 55 54 52 51 50 50 49 49
77 77 78 78 79 80 81 81 82 83 84 84 85 85 86 86 87 87 88 88 89 89 90 91 92 92 93 94 95 96 96 97 97 97 98 99 100 100 100 101 101 101 100 100 100 100 101 101 102 103 104 105 105 104 103 101 99 97 94 92 90 88 86 83 81 77 74 70 66 63 60 58 56 55 55 54 54 53 53 52 51 50 49 48 47 47
76 77 78 78 79 80 81 81 82 83 83 84 85 85 85 86 86 87 87 88 88 89 90 91 92 93 93 94 94 95 96 96 96 97 97 98 99 99 99 100 100 100 100 99 99 99 99 100 100 101 102 102 102 102 101 99 97 94 92 90 88 86 83 81 79 76 72 69 65 62 59 57 56 54 53 52 51 51 50 50 49 48 47 46 45 44
76 77 78 78 79 80 80 81 82 83 83 84 84 84 85 85 86 87 87 88 89 89 90 91 92 93 93 94 94 95 95 95 96 96 97 97 98 99 99 99 99 99 99 99 98 98 98 98 98 99 99 99 99 99 98 96 94 92 89 87 85 83 81 79 76 73 70 67 64 61 58 56 55 53 52 50 49 49 48 48 47 46 45 44 43 42
76 77 78 78 79 80 81 81 82 82 83 83 84 84 85 85 86 87 87 88 89 89 90 91 92 93 94 94 94 95 95 95 95 95 96 96 97 97 98 98 98 98 98 98 98 97 97 97 97 96 96 96 96 95 95 94 92 89 87 85 83 81 78 76 74 71 68 65 62 60 57 55 54 52 51 49 48 47 46 45 45 44 43 42 41 40
76 77 77 78 79 80 81 81 82 82 83 83 84 84 85 86 86 87 88 88 89 90 90 91 92 92 93 93 94 94 94 95 95 95 95 96 96 97 97 97 97 97 97 97 97 97 96 96 95 94 93 93 93 93 92 91 89 86 84 82 80 78 76 73 71 68 66 63 61 58 56 54 53 51 49 48 46 45 44 43 43 42 41 40 39 38
76 77 77 78 79 80 81 81 82 82 83 83 84 84 85 86 87 87 88 88 89 90 90 91 91 92 92 92 93 93 93 94 94 94 94 95 95 95 96 96 96 96 96 96 96 95 95 94 93 92 91 90 90 90 89 88 86 83 81 79 78 76 73 71 68 66 64 61 59 57 55 53 51 50 48 47 45 44 43 42 41 40 39 38 37 36
76 77 77 78 79 80 81 81 82 83 83 84 84 85 85 86 87 87 88 89 89 90 90 91 91 91 92 92 92 92 92 92 93 93 93 94 94 94 94 94 94 94 94 95 95 95 94 93 91 90 88 88 88 88 87 85 83 81 78 76 75 73 71 69 66 64 62 60 58 55 53 52 50 48 47 46 44 42 41 40 39 38 37 36 35 34
76 76 77 78 79 80 81 81 82 83 83 84 84 85 86 86 87 87 88 88 89 89 90 90 91 91 91 91 91 91 91 91 92 92 92 93 92 93 93 93 93 93 94 94 94 94 92 91 89 88 87 86 86 85 84 83 80 78 75 73 72 70 69 67 64 62 60 58 56 54 52 50 48 47 46 44 42 41 39 38 37 36 35 34 33 32
75 76 77 78 79 80 81 81 82 83 83 84 84 85 86 86 87 87 87 88 88 88 89 89 90 90 91 91 91 91 91 91 91 91 92 92 92 92 92 92 93 93 93 94 93 93 91 89 87 86 85 84 84 83 82 80 78 76 73 70 68 67 65 64 62 60 58 57 55 53 51 49 47 45 44 42 41 39 38 36 35 34 33 32 31 30
76 76 77 78 79 80 80 81 82 82 83 84 84 85 86 86 86 87 87 87 87 88 88 88 89 90 90 90 90 90 90 90 90 91 91 91 91 91 91 92 92 93 93 93 93 92 90 88 86 84 83 82 81 80 79 78 76 74 71 68 65 63 62 61 59 58 56 55 53 51 49 47 46 44 42 41 39 38 36 35 33 32 31 30 29 29
76 76 77 78 79 79 80 81 81 82 83 83 84 85 85 86 86 86 86 87 87 87 87 88 88 89 90 90 90 90 90 90 90 90 90 90 90 90 91 91 92 93 93 93 92 91 89 87 85 83 82 80 79 78 77 75 74 72 69 66 63 60 59 58 57 55 54 53 51 49 48 46 44 42 41 39 37 36 34 33 32 30 29 28 28 27
75 76 77 78 78 79 80 80 81 82 82 83 84 84 85 85 85 86 86 86 87 87 87 87 88 88 89 89 90 89 89 89 89 89 89 89 90 90 91 91 92 92 93 92 92 90 88 86 84 82 81 79 78 76 75 73 72 70 67 64 61 58 55 54 53 52 51 50 49 47 46 44 42 40 39 37 35 34 33 31 30 29 28 27 26 25
75 76 76 77 78 78 79 80 81 81 82 83 84 84 84 85 85 85 85 86 86 87 87 87 87 88 88 89 89 89 89 89 88 88 88 88 89 90 90 91 92 92 92 92 91 89 87 85 83 81 80 78 76 75 73 71 70 68 66 63 59 56 54 52 50 49 48 47 46 45 43 42 40 38 37 35 34 32 31 29 28 27 26 25 24 24
75 75 76 76 77 78 79 79 80 81 82 83 84 84 84 84 84 85 85 85 86 86 86 86 86 87 87 88 88 88 88 88 88 88 88 88 88 89 90 91 92 92 92 91 90 88 86 84 82 81 79 77 75 74 72 70 68 66 64 61 58 55 53 51 49 48 46 45 44 43 41 40 38 36 35 33 32 30 29 28 26 25 24 23 23 23
74 75 75 76 77 77 79 80 81 82 82 83 84 84 84 84 84 85 85 85 85 85 86 86 86 86 86 87 87 87 87 87 87 87 87 87 88 89 89 90 91 91 91 90 88 87 85 84 82 80 78 76 74 72 71 69 68 66 63 60 57 54 52 50 48 47 45 43 42 41 39 38 36 35 33 32 30 29 27 26 24 23 22 22 21 21
74 75 75 76 77 78 79 80 81 82 83 83 84 84 84 84 84 84 85 85 85 85 85 85 85 85 85 86 86 86 86 87 87 87 87 87 87 88 89 90 90 90 90 89 87 86 84 83 82 80 78 75 73 71 69 68 67 65 62 59 56 54 51 49 47 46 44 42 40 39 38 36 35 33 31 30 28 27 26 24 23 21 21 20 20 20
74 75 75 76 77 78 79 80 81 82 83 83 84 84 84 84 84 85 84 84 85 85 85 85 85 84 85 85 85 85 85 86 86 86 86 86 87 88 88 89 89 89 88 87 86 85 83 82 81 80 78 75 73 70 68 67 66 64 62 59 56 53 51 49 47 45 43 41 39 38 36 34 33 31 30 28 27 25 24 22 21 20 19 18 18 19
74 75 76 76 77 78 79 80 81 82 82 83 83 84 84 84 84 84 85 85 84 84 85 84 84 84 84 84 84 84 84 85 85 85 85 85 86 87 87 88 88 88 87 86 84 83 82 82 81 79 77 75 72 70 67 66 65 63 61 59 56 53 50 48 46 44 42 40 38 36 34 33 31 29 28 26 25 23 22 20 19 18 17 17 17 18
74 75 76 77 78 78 79 80 81 81 82 83 83 84 84 84 84 84 85 85 84 84 84 84 84 84 84 84 84 84 84 84 84 84 84 84 85 86 86 87 87 86 85 84 83 82 81 80 80 78 76 74 72 69 66 64 63 61 60 58 55 52 50 47 45 43 41 38 36 35 33 31 30 28 26 25 23 22 20 19 17 16 16 16 16 17
75 75 76 77 78 78 79 80 81 81 82 82 83 84 84 84 84 84 84 84 84 84 84 83 83 83 83 83 83 83 83 83 83 83 83 83 84 85 85 86 86 85 84 82 81 80 80 79 78 77 75 73 71 68 66 63 61 59 58 56 54 52 49 47 44 42 40 37 35 33 31 30 28 26 25 23 21 20 18 17 16 15 14 15 15 16
75 76 76 77 78 78 79 80 80 81 81 82 83 83 84 84 84 84 84 84 84 84 83 83 82 82 82 82 82 82 82 82 82 82 82 83 83 84 84 84 84 83 82 81 80 79 79 78 78 76 74 72 69 67 65 62 60 58 56 54 53 51 49 46 44 41 39 36 34 32 30 28 26 25 23 21 20 18 17 15 14 13 13 14 14 16
Wind_Direction
287 288 288 288 288 288 288 288 288 288 289 289 289 290 290 291 291 291 292 292 293 293 293 293 293 293 293 294 294 294 294 295 295 295 295 296 296 296 296 296 296 296 296 296 295 295 295 295 295 295 294 294 294 294 294 294 294 294 293 293 293 293 292 292 292 291 291 290 290 290 289 289 289 288 288 288 287 287 286 286 285 285 284 283 283 282
287 287 288 288 288 288 288 288 288 288 289 289 289 290 290 291 291 292 292 292 293 293 293 293 293 293 293 294 294 294 295 295 295 296 296 296 296 296 296 296 296 296 296 296 295 295 295 295 295 295 295 295 294 294 294 294 294 294 294 294 293 293 293 292 292 292 291 291 290 290 290 289 289 289 289 288 288 287 287 286 286 285 284 284 283 282
287 287 287 287 287 287 288 288 288 288 289 289 290 290 291 291 292 292 292 293 293 293 293 293 293 293 294 294 294 295 295 295 295 296 296 296 296 296 296 296 296 296 296 296 295 295 295 295 295 295 295 295 295 295 295 295 294 294 294 294 294 293 293 293 292 292 292 291 291 291 290 290 290 289 289 289 288 288 288 287 287 286 285 284 284 283
287 287 287 287 287 287 287 288 288 289 289 290 290 291 291 292 292 292 293 293 293 293 293 293 293 293 294 294 294 295 295 295 296 296 296 296 296 296 296 296 296 296 296 296 295 295 295 295 295 295 295 295 295 295 295 295 295 295 295 295 294 294 294 293 293 292 292 292 291 291 291 291 290 290 290 290 289 289 289 288 288 287 286 285 284 283
287 287 287 287 287 287 287 288 288 289 289 290 290 291 291 292 292 292 292 293 293 293 293 293 293 294 294 294 295 295 296 296 296 296 296 296 296 296 296 296 296 296 296 296 295 295 295 295 295 296 296 296 296 296 296 296 296 296 296 295 295 295 294 294 294 293 293 293 292 292 292 292 291 291 291 291 290 290 290 289 288 288 287 286 285 284
286 286 286 287 287 287 288 288 289 289 290 290 291 291 292 292 292 292 292 292 292 293 293 293 293 294 294 295 295 296 296 296 296 296 296 296 296 296 296 296 296 296 296 296 296 296 296 296 296 296 296 296 296 296 297 297 297 297 297 296 296 296 295 295 295 294 294 294 294 294 293 293 293 293 293 292 292 291 291 290 289 288 287 286 285 284
286 286 286 287 287 287 288 288 289 290 290 291 291 291 292 292 292 292 292 292 292 293 293 293 294 294 295 295 296 296 296 296 297 297 297 297 297 296 296 296 296 296 296 296 296 296 296 297 297 297 297 297 297 297 297 297 297 297 297 297 297 297 296 296 296 296 296 296 296 295 295 295 295 294 294 293 293 292 291 290 289 288 287 285 284 283
286 286 286 286 287 287 288 289 289 290 291 291 291 292 292 292 292 292 292 292 292 293 293 294 294 295 295 296 296 296 297 297 297 297 297 297 297 297 297 297 297 297 297 297 297 297 297 297 297 297 297 298 298 298 298 298 298 298 298 298 298 298 298 298 297 297 297 297 297 297 297 297 296 296 295 294 293 292 291 290 289 288 286 285 284 282
285 286 286 287 287 288 289 289 290 290 291 291 291 291 292 292 292 292 292 292 293 293 294 294 295 295 296 296 296 297 297 297 297 297 297 297 297 297 297 297 297 297 297 297 297 297 298 298 298 298 298 298 299 299 299 299 299 299 299 299 299 299 299 299 299 299 299 299 299 298 298 298 297 296 296 295 294 293 291 290 289 287 286 285 283 282
285 286 286 287 287 288 289 290 290 290 291 291 291 291 291 292 292 292 293 293 293 294 294 295 295 296 296 296 297 297 297 297 297 297 297 297 297 297 297 297 297 297 297 297 298 298 298 298 299 299 299 299 299 300 300 300 300 300 300 300 300 300 300 300 300 300 300 300 299 299 299 298 298 297 296 295 294 293 291 290 289 287 286 284 283 282
285 286 287 287 288 289 289 290 290 290 291 291 291 291 291 291 292 292 293 293 294 294 295 295 295 296 296 296 297 297 297 297 297 297 297 297 297 297 297 297 297 297 297 298 298 298 299 299 299 299 300 300 300 300 301 301 301 301 301 301 301 301 301 301 301 301 301 300 300 300 299 299 298 297 296 295 294 292 291 290 288 287 286 284 283 281
286 286 287 288 289 289 290 290 290 290 290 290 291 291 291 291 292 292 293 293 294 295 295 295 296 296 296 296 297 297 297 297 297 297 297 297 297 297 297 297 297 297 298 298 298 299 299 299 300 300 300 300 301 301 301 301 301 302 302 302 302 302 302 302 302 301 301 301 301 300 300 299 298 297 296 295 293 292 291 290 288 287 286 284 283 281
286 287 288 288 289 289 290 290 290 290 290 290 291 291 291 292 292 292 293 294 294 295 295 295 296 296 296 296 296 297 297 297 297 297 297 297 297 297 297 297 298 298 298 299 299 299 300 300 300 300 301 301 301 301 302 302 302 302 302 302 302 302 302 302 302 302 302 301 301 301 300 299 298 297 296 295 293 292 291 289 288 287 286 284 283 281
287 288 288 289 289 289 290 290 290 290 290 290 291 291 291 292 292 293 293 294 294 295 295 295 296 296 296 296 296 297 297 297 297 297 297 297 297 297 297 298 298 298 299 299 299 300 300 301 301 301 301 301 302 302 302 303 303 303 303 303 303 303 303 303 303 303 302 302 301 301 300 299 298 297 296 294 293 292 291 289 288 287 286 284 283 281
287 288 289 289 289 289 289 290 290 290 290 290 291 291 292 292 293 293 294 294 295 295 295 295 295 296 296 296 296 297 297 297 297 297 297 297 297 297 298 298 298 299 299 300 300 300 301 301 301 301 302 302 303 303 303 304 304 304 304 304 304 304 303 303 303 303 303 302 302 301 300 299 298 297 296 294 293 292 290 289 288 287 285 284 283 281
288 289 289 289 289 289 289 289 290 290 290 290 291 291 292 293 293 294 294 294 295 295 295 295 296 296 296 296 296 297 297 297 297 297 297 297 297 298 298 298 299 299 300 300 301 301 302 302 302 302 303 303 303 304 304 304 304 304 304 304 304 304 304 304 304 304 303 303 302 301 300 299 298 297 295 294 293 292 291 289 288 287 285 284 283 281
288 289 289 289 289 289 289 289 289 290 290 291 291 292 292 293 294 294 294 295 295 295 295 295 296 296 296 296 297 297 297 297 297 297 297 298 298 298 299 299 299 300 300 301 301 302 302 303 303 303 303 304 304 304 305 305 305 305 305 305 305 305 305 305 305 304 304 303 302 302 301 299 298 297 295 294 293 292 291 290 288 287 285 284 282 281
288 288 288 288 289 289 289 289 289 290 290 291 292 292 293 293 294 294 294 295 295 295 295 296 296 296 296 296 297 297 297 297 298 298 298 298 298 299 299 300 300 301 301 302 302 303 303 303 304 304 304 305 305 305 305 305 305 305 305 305 305 305 305 305 305 305 304 303 303 302 301 299 298 296 295 294 293 292 291 290 288 287 285 284 282 281
288 288 288 288 288 289 289 289 290 290 291 291 292 293 293 294 294 294 295 295 295 295 295 296 296 296 296 296 296 297 297 297 298 298 298 298 299 299 300 300 301 301 302 303 303 303 304 304 304 305 305 305 305 305 305 305 306 306 306 306 306 306 306 306 305 305 304 304 303 302 301 299 298 296 295 294 293 292 291 290 288 286 285 283 282 280
287 287 288 288 288 289 289 289 290 290 291 292 293 293 294 294 294 295 295 295 295 295 295 296 296 296 296 296 296 297 297 297 298 298 299 299 299 300 300 301 302 302 303 303 304 304 304 305 305 305 305 305 306 306 306 306 306 306 306 307 307 307 306 306 306 305 305 304 303 302 301 299 297 296 295 294 293 292 291 290 288 286 285 283 281 280
287 287 288 288 288 288 289 290 290 291 292 292 293 293 294 294 295 295 295 295 295 296 296 296 296 296 296 297 297 297 297 298 298 299 299 300 300 300 301 302 303 303 303 304 304 305 305 305 305 306 306 306 306 306 306 306 307 307 307 307 307 307 307 306 306 306 305 304 303 302 301 299 297 296 295 294 294 293 291 290 288 286 284 283 281 279
287 287 288 288 288 288 289 290 291 292 292 293 293 294 294 294 295 295 295 296 296 296 296 296 296 297 297 297 297 297 298 298 299 300 300 300 301 301 302 303 303 304 304 304 305 305 305 306 306 306 306 306 306 307 307 307 307 308 308 308 308 307 307 307 306 306 305 305 304 302 301 299 297 296 295 294 294 293 291 289 287 286 284 282 280 279
287 287 288 288 288 289 290 290 291 292 293 293 293 294 294 295 295 295 295 296 296 296 296 297 297 297 297 297 297 298 298 299 299 300 301 301 302 302 302 303 304 304 304 305 305 306 306 306 306 307 307 307 307 307 307 308 308 308 308 308 308 308 307 307 307 306 306 305 304 302 301 299 297 296 295 295 294 293 291 289 287 285 283 282 280 278
287 287 287 288 289 289 290 291 292 292 293 293 294 294 294 295 295 295 295 296 296 296 296 297 297 297 297 297 298 298 299 299 300 301 302 302 302 302 303 304 304 305 305 305 306 306 307 307 307 307 308 308 308 308 308 308 309 309 309 309 308 308 308 307 307 307 306 305 304 302 300 299 297 296 295 295 294 293 291 289 287 285 283 281 279 277
286 287 287 288 289 290 291 291 292 293 293 294 294 294 295 295 295 295 296 296 296 296 297 297 297 297 298 298 298 299 300 300 301 302 302 303 303 303 304 304 305 305 306 306 307 307 307 308 308 308 308 308 309 309 309 309 309 309 309 309 309 308 308 308 308 307 306 305 304 302 300 298 297 296 295 295 294 293 291 289 286 284 282 280 278 276
286 287 287 288 289 290 291 292 292 293 293 294 294 295 295 295 296 296 296 296 297 297 297 297 298 298 298 299 299 300 301 301 302 303 303 303 303 304 304 305 306 306 307 307 307 308 308 308 309 309 309 309 309 309 309 309 310 310 310 310 309 309 309 309 308 308 307 306 304 302 300 298 297 296 295 295 294 293 291 288 286 284 282 280 278 276
286 287 288 289 290 291 291 292 292 293 294 294 294 295 295 296 296 296 296 297 297 298 298 298 298 299 299 300 300 301 302 302 303 303 304 304 304 305 305 306 306 307 307 308 308 309 309 309 310 310 310 310 310 310 310 310 310 310 310 310 310 310 310 309 309 308 307 306 304 303 301 299 297 296 295 294 294 292 291 288 286 284 281 279 277 275
287 287 288 289 290 291 292 292 293 293 294 294 295 295 295 296 296 297 297 297 298 298 298 298 299 299 300 301 301 302 302 303 304 304 304 305 305 305 306 307 307 308 308 309 309 310 310 310 310 310 310 310 310 310 310 311 311 311 311 311 311 311 310 310 309 309 308 307 305 303 301 299 297 296 295 294 293 292 290 288 286 284 281 279 277 275
287 288 289 290 291 291 292 293 293 294 294 294 295 295 296 296 297 297 297 298 298 299 299 299 300 300 301 301 302 302 303 304 304 305 305 306 306 306 307 307 308 309 309 310 310 310 310 310 311 311 311 311 311 311 311 311 312 312 312 312 312 312 311 311 310 310 309 308 306 304 302 300 298 296 295 294 293 292 290 288 286 284 281 279 277 275
288 289 290 290 291 292 292 293 294 294 294 295 295 296 296 297 297 297 298 298 299 299 299 300 300 301 302 302 303 303 304 304 305 306 306 307 307 307 308 308 309 309 310 310 310 311 311 311 311 311 312 312 312 312 312 312 312 313 313 313 313 313 312 312 311 311 310 309 307 305 303 301 298 297 295 294 293 291 290 288 286 284 281 279 277 275
289 290 290 291 292 292 293 293 294 294 295 295 296 296 297 297 297 298 298 299 299 300 300 301 301 302 302 303 304 304 305 305 306 307 307 307 308 308 309 309 310 310 310 311 311 311 311 311 312 312 313 313 313 313 313 313 313 314 314 314 314 313 313 312 312 311 310 309 308 307 305 302 300 298 296 294 293 291 290 288 286 284 282 279 277 275
289 290 291 292 292 293 293 294 294 295 295 296 296 297 297 298 298 298 299 299 300 301 301 302 302 303 303 304 304 305 306 306 307 307 308 308 309 309 309 310 310 311 311 311 311 311 312 312 313 313 314 314 314 313 313 313 314 314 314 314 314 313 313 312 312 312 311 310 309 308 306 304 301 299 297 295 293 291 290 288 286 284 282 280 277 275
290 291 291 292 293 293 294 294 295 295 296 296 297 297 298 298 299 299 300 300 301 301 302 303 303 304 304 305 305 306 306 307 308 308 309 309 309 310 310 311 311 311 311 311 311 312 312 313 314 314 315 315 314 314 314 314 314 314 315 314 314 313 313 312 312 312 311 310 309 308 307 305 302 300 298 296 294 292 290 288 286 284 282 280 277 275
291 292 292 293 294 294 295 295 296 296 297 297 298 298 299 299 299 300 300 301 302 302 303 303 304 304 305 306 306 306 307 308 308 309 309 310 310 310 311 311 311 311 311 311 312 312 313 314 315 315 315 315 315 314 314 314 315 315 315 315 314 314 313 313 312 312 311 310 309 308 307 305 303 301 299 297 295 292 290 288 286 284 282 280 277 275
292 292 293 294 294 295 295 296 296 297 297 298 298 299 299 300 300 301 301 302 302 303 303 304 304 305 306 306 307 307 308 309 309 310 310 310 311 311 311 311 311 311 311 312 312 313 314 315 316 316 316 316 315 315 315 315 315 315 315 315 315 314 313 313 312 312 311 310 310 309 307 306 304 302 300 298 295 293 291 289 287 285 282 280 277 274
293 293 294 295 295 296 296 297 297 298 298 299 299 300 300 300 301 301 302 302 303 304 304 304 305 305 306 307 307 308 309 309 310 310 310 311 311 311 311 311 311 312 312 313 313 314 315 316 317 317 317 317 316 316 315 315 315 316 316 316 315 314 313 313 312 312 311 311 310 309 308 306 304 302 300 298 296 294 291 289 287 285 282 280 277 273
294 294 295 296 296 297 297 297 298 298 299 299 300 300 301 301 301 302 303 303 304 304 305 305 306 306 307 307 308 308 309 310 310 310 310 311 311 311 311 312 312 312 313 314 314 315 316 317 318 318 318 317 317 316 316 316 316 316 316 316 316 315 314 313 313 312 312 311 310 309 308 306 305 303 301 299 297 295 292 290 287 285 282 279 276 272
294 295 296 296 297 297 298 298 298 299 300 300 300 301 301 302 302 303 303 304 304 305 305 306 306 307 307 308 309 309 310 310 310 310 311 311 311 312 312 312 313 313 314 315 316 317 318 318 319 319 319 318 318 317 317 317 317 317 317 317 316 316 315 314 313 313 312 311 310 309 308 306 305 303 301 299 297 295 293 290 288 285 282 279 275 271
295 296 296 297 297 298 298 299 299 300 300 301 301 301 302 302 303 303 304 305 305 306 306 307 307 308 308 309 309 310 310 311 311 311 311 312 312 312 313 313 314 315 315 316 317 318 319 319 319 320 319 319 319 318 318 317 317 317 317 317 317 316 315 314 313 312 312 311 310 309 308 306 305 303 301 299 297 295 293 290 288 285 282 278 274 270
295 296 296 297 297 298 299 299 300 300 301 301 302 302 302 303 304 304 305 305 306 306 307 308 308 308 309 309 310 310 311 311 311 312 312 313 313 314 314 315 315 316 317 317 318 319 320 320 320 320 320 320 319 319 319 318 318 318 318 318 317 317 315 315 313 313 312 311 310 309 308 306 305 303 301 299 298 295 293 291 288 285 281 278 273 268
296 296 297 297 298 299 299 300 300 301 301 302 302 303 303 304 305 305 306 306 307 307 308 308 309 309 310 310 310 311 311 312 312 313 313 314 314 315 315 316 317 317 318 318 319 320 320 321 321 321 320 320 320 320 320 319 319 319 319 319 318 317 316 315 314 313 312 311 310 309 308 306 305 303 301 300 298 295 293 290 287 284 281 277 272 267
296 297 297 298 299 299 300 300 301 301 302 302 303 303 304 305 306 306 307 307 308 308 309 309 310 310 311 311 311 312 312 313 313 313 314 315 316 316 317 317 318 318 319 319 320 321 321 322 322 322 321 321 321 321 321 320 320 320 319 319 319 318 316 315 314 313 312 311 309 308 307 306 305 303 301 300 298 295 293 290 287 284 280 276 271 265
297 297 298 299 299 300 301 301 302 302 303 303 304 304 305 306 306 307 308 308 309 309 310 310 311 311 311 312 312 312 313 313 314 314 315 316 317 317 318 318 319 319 320 320 321 321 322 322 322 322 322 322 322 322 322 321 321 320 320 320 319 319 318 316 315 314 313 311 310 309 307 306 305 303 302 300 298 295 292 290 287 283 279 274 269 263
297 298 299 299 300 301 301 302 303 303 304 304 305 305 306 307 307 308 308 309 309 310 310 311 311 312 312 312 313 313 314 314 315 315 316 317 318 318 319 319 319 320 321 321 322 322 323 323 323 323 323 323 323 323 323 323 322 321 321 321 321 320 320 319 317 316 314 312 311 309 308 307 305 304 302 300 298 295 292 289 286 282 278 273 267 261
298 299 299 300 301 302 303 303 303 304 304 305 305 306 307 307 308 308 309 309 310 310 311 311 312 312 313 313 313 314 315 315 316 316 317 318 318 319 319 320 320 321 321 322 323 323 324 324 324 324 324 324 324 324 324 324 323 323 322 322 322 321 321 320 318 317 316 314 312 310 309 307 306 304 302 300 298 295 292 289 285 281 276 271 265 258
299 300 301 301 302 303 303 304 304 305 305 305 306 306 307 308 308 309 309 310 310 311 311 312 313 313 313 314 314 315 315 316 316 317 318 319 319 319 320 320 321 321 322 323 323 324 325 325 325 325 324 325 325 325 325 325 325 324 323 323 323 323 322 321 320 319 317 315 313 312 310 308 307 305 303 300 298 295 292 288 285 280 275 269 262 255
300 301 302 302 303 304 304 304 304 305 305 306 306 307 307 308 309 309 310 310 311 312 312 313 313 314 314 314 315 316 316 317 317 318 318 319 319 320 320 321 321 322 323 324 324 325 326 326 326 325 325 325 326 326 327 327 326 325 324 324 324 324 323 322 321 320 319 317 315 313 311 309 308 306 303 301 298 295 292 288 284 279 273 267 260 252
301 302 302 303 304 304 304 304 304 305 305 306 306 307 308 308 309 310 311 311 312 312 313 313 314 314 315 315 316 316 317 317 317 318 319 319 320 320 321 321 322 322 323 324 325 326 326 327 326 326 326 326 327 327 328 328 327 326 325 325 324 324 324 323 322 321 320 318 316 314 312 311 309 306 304 301 298 295 291 287 283 278 271 264 257 249
301 302 303 303 304 304 304 304 304 305 306 306 307 307 308 309 310 310 311 312 312 313 313 314 315 315 316 316 316 317 317 317 318 318 319 319 320 320 321 322 322 323 324 325 326 327 327 327 327 326 326 327 327 328 328 328 328 327 326 325 325 324 324 324 323 322 320 319 317 315 313 311 309 307 304 301 298 294 291 287 282 276 269 261 253 245
302 302 303 303 303 303 304 304 305 305 306 307 307 308 309 310 310 311 312 312 313 313 314 315 315 316 316 316 317 317 317 317 318 318 319 320 320 321 321 322 323 324 325 326 327 328 328 328 327 327 326 327 327 328 328 328 328 327 326 326 325 325 325 325 324 323 321 320 318 316 314 312 310 308 305 302 298 294 290 286 280 273 266 257 248 240
302 302 303 303 303 303 304 304 305 306 306 307 308 309 309 310 311 311 312 313 313 314 314 315 316 316 317 317 317 317 317 318 318 319 319 320 321 321 322 323 323 324 325 327 328 329 329 329 328 327 327 327 327 328 328 329 328 328 327 326 326 325 325 325 324 324 322 321 319 317 315 313 311 308 305 302 298 295 290 285 279 271 262 253 243 235
Height
10542 10540 10539 10537 10535 10533 10530 10528 10526 10524 10521 10519 10517 10516 10514 10512 10510 10508 10506 10504 10501 10499 10496 10494 10491 10488 10485 10483 10480 10477 10475 10472 10469 10466 10463 10460 10457 10455 10452 10449 10447 10444 10441 10439 10436 10434 10432 10429 10427 10425 10423 10421 10419 10417 10415 10413 10411 10409 10407 10405 10403 10400 10398 10395 10393 10390 10388 10386 10384 10382 10379 10377 10375 10374 10372 10370 10368 10366 10365 10364 10362 10362 10360 10360 10360 10359
10537 10535 10533 10531 10529 10527 10524 10522 10520 10518 10515 10513 10511 10509 10508 10505 10504 10501 10499 10497 10495 10492 10490 10487 10484 10481 10479 10475 10473 10470 10467 10465 10462 10459 10456 10453 10450 10447 10444 10442 10439 10436 10434 10431 10429 10426 10424 10421 10419 10417 10414 10412 10410 10409 10407 10405 10403 10401 10399 10397 10395 10392 10390 10387 10384 10382 10379 10377 10374 10372 10369 10367 10365 10363 10361 10359 10357 10355 10353 10351 10350 10349 10348 10347 10347 10346
10530 10529 10526 10524 10523 10520 10518 10515 10514 10512 10510 10507 10505 10503 10502 10499 10497 10495 10492 10490 10488 10485 10483 10480 10477 10474 10472 10469 10466 10464 10460 10457 10454 10452 10449 10445 10442 10439 10437 10434 10431 10429 10425 10423 10420 10418 10415 10413 10410 10409 10406 10404 10402 10400 10398 10396 10394 10392 10390 10389 10386 10384 10381 10378 10375 10372 10370 10367 10364 10362 10359 10357 10354 10352 10350 10347 10345 10343 10340 10339 10337 10335 10334 10333 10332 10332
10525 10522 10520 10518 10516 10514 10512 10510 10508 10505 10504 10502 10499 10497 10495 10493 10490 10488 10486 10484 10481 10478 10475 10473 10470 10467 10465 10462 10459 10456 10454 10450 10447 10444 10441 10438 10435 10432 10429 10426 10423 10420 10418 10415 10412 10410 10407 10405 10402 10400 10398 10395 10393 10391 10389 10387 10385 10384 10381 10379 10377 10374 10371 10368 10365 10362 10360 10357 10354 10352 10349 10346 10344 10340 10338 10335 10333 10330 10327 10325 10323 10320 10319 10318 10317 10317
10519 10516 10514 10512 10510 10507 10505 10504 10502 10500 10498 10496 10494 10492 10489 10487 10484 10482 10479 10477 10474 10471 10468 10465 10463 10460 10458 10455 10452 10449 10446 10444 10440 10437 10434 10430 10427 10424 10421 10418 10415 10412 10410 10407 10404 10402 10399 10397 10394 10392 10389 10387 10384 10382 10380 10378 10376 10374 10372 10369 10366 10364 10360 10357 10354 10352 10349 10346 10344 10340 10337 10334 10331 10329 10325 10322 10320 10317 10314 10312 10309 10307 10305 10304 10302 10301
10512 10510 10508 10506 10504 10502 10500 10498 10496 10494 10492 10490 10487 10485 10483 10480 10478 10475 10472 10470 10467 10464 10461 10459 10456 10454 10451 10449 10445 10442 10439 10436 10433 10429 10426 10423 10420 10417 10414 10410 10407 10404 10401 10399 10395 10393 10390 10388 10385 10383 10380 10377 10375 10373 10371 10369 10367 10364 10362 10359 10355 10352 10349 10346 10343 10340 10337 10334 10331 10328 10325 10322 10318 10315 10312 10309 10306 10303 10300 10298 10295 10293 10291 10289 10288 10287
10506 10504 10502 10500 10498 10496 10494 10492 10490 10489 10487 10484 10482 10479 10477 10474 10472 10469 10466 10463 10460 10457 10454 10452 10449 10447 10445 10442 10439 10435 10432 10429 10425 10422 10419 10415 10412 10409 10405 10402 10399 10396 10393 10390 10387 10384 10382 10379 10376 10374 10371 10369 10366 10364 10362 10360 10357 10355 10352 10349 10345 10341 10338 10334 10331 10328 10324 10321 10318 10314 10311 10307 10304 10301 10297 10295 10292 10289 10287 10284 10281 10279 10277 10275 10274 10272
10500 10498 10497 10495 10493 10490 10489 10487 10485 10484 10481 10479 10475 10473 10470 10467 10465 10462 10459 10457 10454 10451 10448 10445 10442 10440 10437 10435 10432 10429 10425 10422 10419 10415 10411 10408 10404 10401 10398 10394 10390 10387 10384 10381 10378 10375 10372 10370 10367 10364 10362 10359 10356 10354 10352 10350 10347 10345 10342 10338 10334 10330 10327 10323 10319 10315 10312 10308 10304 10300 10297 10294 10290 10287 10284 10280 10277 10275 10272 10270 10267 10265 10263 10261 10260 10259
10495 10493 10490 10489 10487 10485 10484 10481 10479 10478 10475 10473 10470 10467 10464 10460 10458 10455 10453 10450 10447 10445 10442 10439 10435 10432 10430 10428 10425 10422 10419 10415 10412 10408 10404 10400 10397 10394 10390 10386 10382 10379 10375 10372 10370 10367 10364 10361 10358 10355 10352 10349 10347 10344 10342 10340 10337 10334 10331 10327 10323 10319 10315 10311 10307 10303 10299 10295 10291 10287 10284 10280 10277 10274 10270 10267 10264 10260 10258 10255 10253 10250 10249 10247 10245 10245
10490 10488 10485 10484 10482 10481 10479 10476 10474 10472 10470 10467 10464 10461 10459 10455 10452 10448 10445 10443 10440 10438 10435 10432 10429 10426 10422 10420 10419 10416 10412 10409 10405 10401 10398 10394 10390 10386 10382 10379 10375 10371 10368 10364 10361 10358 10355 10352 10349 10345 10342 10339 10337 10334 10332 10330 10327 10324 10320 10316 10312 10308 10304 10300 10295 10291 10287 10283 10279 10275 10271 10267 10264 10260 10257 10253 10250 10247 10244 10241 10239 10237 10235 10233 10232 10231
10484 10482 10480 10479 10477 10475 10474 10471 10468 10465 10464 10461 10458 10455 10452 10450 10447 10443 10439 10435 10433 10431 10429 10426 10424 10421 10417 10414 10411 10409 10406 10402 10398 10394 10390 10387 10384 10380 10376 10372 10368 10364 10360 10357 10354 10350 10347 10344 10340 10337 10333 10330 10327 10324 10322 10320 10317 10314 10310 10305 10301 10297 10293 10289 10284 10280 10275 10271 10267 10262 10259 10255 10251 10247 10244 10240 10236 10233 10230 10227 10224 10222 10221 10220 10219 10218
10479 10477 10475 10474 10472 10470 10467 10465 10462 10460 10457 10455 10452 10449 10445 10444 10442 10439 10435 10431 10427 10425 10422 10419 10417 10414 10412 10409 10405 10402 10399 10396 10392 10388 10384 10380 10376 10373 10369 10365 10361 10357 10354 10350 10347 10344 10340 10336 10332 10328 10325 10321 10318 10315 10312 10310 10307 10304 10299 10295 10290 10286 10282 10277 10273 10269 10264 10260 10255 10251 10246 10242 10238 10234 10230 10226 10223 10219 10216 10213 10211 10209 10207 10206 10205 10205
10474 10472 10470 10469 10466 10464 10462 10459 10457 10454 10451 10449 10446 10443 10440 10437 10435 10434 10430 10427 10423 10420 10417 10413 10410 10407 10405 10404 10401 10397 10394 10390 10385 10382 10377 10374 10369 10366 10362 10358 10354 10350 10347 10343 10339 10335 10332 10329 10324 10320 10316 10312 10309 10306 10303 10300 10297 10294 10289 10284 10280 10275 10271 10266 10262 10257 10253 10249 10244 10239 10234 10229 10225 10220 10217 10213 10209 10206 10203 10200 10198 10196 10195 10194 10193 10192
10469 10467 10465 10463 10460 10459 10456 10454 10451 10448 10445 10442 10440 10437 10434 10432 10429 10427 10424 10421 10418 10415 10412 10408 10404 10401 10399 10397 10395 10392 10389 10385 10380 10375 10371 10367 10363 10360 10356 10351 10346 10342 10340 10336 10332 10328 10324 10321 10317 10312 10307 10304 10300 10297 10294 10291 10287 10283 10279 10274 10269 10265 10260 10255 10251 10247 10242 10237 10232 10227 10222 10217 10212 10207 10203 10200 10197 10194 10190 10188 10186 10184 10182 10181 10180 10180
10464 10462 10460 10457 10455 10452 10450 10448 10445 10442 10439 10437 10434 10431 10429 10426 10424 10421 10419 10415 10412 10409 10406 10402 10399 10395 10392 10391 10389 10387 10384 10379 10375 10370 10365 10360 10355 10353 10350 10345 10340 10335 10332 10329 10325 10320 10316 10313 10309 10304 10299 10294 10290 10287 10284 10281 10277 10273 10269 10264 10259 10254 10250 10245 10240 10235 10230 10226 10221 10216 10210 10205 10200 10195 10190 10187 10184 10181 10179 10177 10175 10172 10171 10170 10169 10169
10459 10457 10454 10451 10449 10446 10444 10442 10439 10437 10434 10430 10428 10425 10423 10420 10417 10415 10413 10410 10406 10403 10400 10397 10393 10389 10385 10384 10383 10382 10379 10374 10369 10365 10360 10354 10349 10345 10343 10339 10334 10328 10324 10321 10317 10314 10309 10304 10299 10294 10290 10285 10281 10277 10274 10270 10267 10262 10258 10254 10249 10244 10239 10235 10230 10225 10220 10215 10210 10204 10199 10194 10188 10182 10178 10174 10172 10170 10168 10165 10164 10162 10160 10159 10158 10158
10454 10451 10449 10446 10443 10440 10438 10436 10434 10431 10428 10425 10422 10420 10417 10415 10412 10409 10407 10404 10400 10397 10394 10391 10388 10384 10379 10375 10374 10374 10374 10369 10364 10359 10354 10348 10342 10338 10335 10332 10327 10322 10317 10314 10310 10305 10301 10295 10290 10285 10280 10276 10272 10268 10264 10260 10256 10252 10248 10243 10239 10234 10229 10224 10219 10214 10209 10204 10199 10193 10187 10182 10176 10171 10166 10163 10160 10159 10157 10155 10154 10152 10150 10149 10148 10147
10448 10445 10443 10440 10437 10435 10432 10430 10428 10425 10422 10419 10417 10414 10412 10409 10407 10404 10401 10398 10395 10392 10388 10385 10382 10379 10375 10370 10367 10365 10365 10363 10359 10353 10348 10342 10336 10331 10329 10325 10321 10315 10310 10306 10302 10297 10293 10287 10282 10277 10272 10267 10262 10258 10254 10250 10246 10242 10237 10233 10229 10224 10219 10214 10209 10204 10198 10193 10187 10182 10177 10170 10165 10160 10155 10152 10150 10148 10147 10145 10144 10142 10140 10139 10138 10137
10442 10440 10437 10435 10432 10429 10427 10424 10422 10419 10417 10414 10412 10409 10405 10402 10400 10398 10395 10392 10389 10386 10383 10379 10375 10373 10370 10367 10362 10360 10359 10357 10353 10348 10342 10336 10330 10324 10321 10318 10314 10309 10304 10299 10294 10290 10285 10279 10274 10269 10264 10259 10254 10249 10244 10240 10237 10232 10228 10223 10218 10214 10209 10204 10199 10194 10188 10182 10177 10171 10165 10160 10154 10149 10145 10143 10140 10139 10137 10135 10134 10132 10130 10129 10129 10128
10436 10434 10432 10429 10427 10424 10421 10419 10416 10414 10412 10409 10406 10404 10400 10397 10394 10392 10389 10386 10383 10380 10377 10374 10370 10367 10364 10361 10357 10354 10352 10350 10347 10342 10337 10331 10324 10319 10314 10311 10307 10302 10296 10291 10287 10282 10277 10271 10265 10260 10255 10250 10245 10240 10235 10231 10227 10222 10218 10213 10208 10203 10199 10194 10189 10184 10179 10173 10167 10161 10155 10149 10144 10139 10135 10134 10132 10130 10129 10127 10125 10123 10122 10120 10120 10119
10430 10428 10426 10424 10422 10418 10415 10412 10410 10409 10407 10404 10401 10398 10395 10392 10389 10385 10382 10380 10377 10374 10370 10367 10364 10361 10358 10355 10351 10348 10346 10344 10340 10335 10330 10324 10318 10312 10309 10305 10300 10295 10289 10284 10279 10274 10269 10264 10258 10252 10247 10242 10236 10230 10226 10221 10217 10212 10208 10203 10198 10193 10188 10184 10179 10174 10169 10164 10157 10152 10145 10139 10134 10129 10126 10125 10124 10122 10120 10118 10116 10114 10113 10112 10112 10111
10425 10422 10420 10418 10416 10413 10410 10407 10405 10404 10402 10399 10396 10392 10389 10386 10383 10379 10376 10374 10370 10367 10364 10360 10357 10354 10352 10349 10345 10342 10340 10338 10335 10330 10325 10319 10312 10305 10302 10299 10295 10289 10283 10277 10272 10266 10261 10256 10250 10245 10239 10233 10227 10221 10216 10211 10207 10202 10198 10193 10188 10183 10179 10174 10169 10165 10160 10154 10149 10142 10136 10130 10124 10120 10117 10116 10115 10114 10112 10110 10108 10106 10105 10104 10104 10103
10420 10417 10414 10412 10410 10407 10405 10403 10400 10398 10396 10394 10390 10387 10384 10381 10378 10374 10371 10368 10365 10361 10358 10354 10351 10348 10345 10343 10339 10336 10334 10332 10329 10324 10319 10313 10306 10300 10295 10292 10288 10282 10277 10271 10265 10260 10254 10248 10243 10237 10232 10225 10218 10212 10206 10201 10197 10192 10188 10183 10178 10174 10169 10164 10160 10155 10151 10145 10140 10134 10128 10121 10115 10111 10109 10108 10107 10106 10104 10102 10100 10099 10097 10097 10095 10095
10414 10412 10409 10407 10404 10402 10400 10398 10395 10393 10390 10388 10385 10382 10379 10376 10373 10369 10366 10363 10359 10356 10352 10349 10345 10342 10339 10336 10333 10330 10327 10325 10322 10317 10312 10306 10300 10294 10289 10285 10281 10276 10270 10264 10259 10254 10247 10241 10235 10230 10224 10217 10210 10203 10197 10192 10187 10182 10178 10174 10169 10164 10159 10155 10150 10147 10142 10137 10132 10126 10120 10114 10108 10104 10101 10100 10099 10098 10097 10095 10093 10092 10090 10089 10089 10088
10409 10406 10404 10401 10399 10397 10395 10394 10391 10389 10385 10383 10380 10376 10373 10370 10367 10364 10360 10357 10354 10350 10347 10344 10340 10336 10332 10329 10326 10322 10320 10318 10315 10311 10305 10299 10293 10287 10283 10280 10275 10270 10264 10258 10252 10246 10240 10234 10228 10222 10215 10209 10201 10194 10188 10182 10177 10172 10168 10163 10159 10154 10149 10145 10142 10137 10134 10129 10124 10119 10113 10107 10101 10097 10094 10092 10091 10090 10089 10088 10086 10085 10083 10082 10081 10080
10404 10402 10399 10397 10395 10393 10391 10389 10386 10384 10381 10378 10375 10372 10368 10364 10360 10357 10354 10351 10348 10345 10342 10338 10334 10330 10327 10324 10320 10316 10313 10310 10308 10304 10299 10293 10286 10280 10275 10272 10269 10264 10258 10251 10245 10239 10232 10226 10220 10214 10208 10200 10193 10185 10179 10174 10168 10163 10158 10153 10149 10144 10140 10136 10132 10129 10125 10120 10116 10111 10105 10100 10095 10090 10087 10085 10084 10083 10082 10080 10079 10078 10076 10075 10074 10074
10399 10397 10395 10393 10390 10389 10386 10384 10382 10379 10376 10373 10370 10367 10364 10360 10355 10352 10348 10345 10342 10339 10336 10332 10329 10324 10320 10317 10314 10310 10306 10303 10300 10297 10292 10286 10280 10274 10269 10264 10261 10257 10252 10245 10239 10232 10225 10219 10213 10207 10200 10193 10185 10178 10171 10165 10159 10154 10149 10144 10139 10134 10130 10126 10123 10120 10116 10112 10108 10104 10099 10094 10089 10085 10082 10079 10077 10075 10075 10074 10072 10071 10070 10069 10067 10067
10394 10392 10390 10389 10386 10384 10382 10379 10377 10374 10371 10368 10365 10361 10358 10355 10351 10347 10342 10339 10336 10333 10330 10327 10323 10319 10315 10311 10307 10303 10300 10297 10293 10289 10284 10279 10273 10267 10262 10258 10254 10250 10245 10239 10233 10227 10220 10213 10206 10199 10193 10185 10178 10170 10163 10157 10152 10146 10141 10135 10129 10124 10120 10116 10113 10110 10107 10104 10100 10096 10092 10088 10084 10080 10076 10073 10071 10069 10068 10067 10065 10064 10064 10062 10061 10060
10390 10388 10386 10384 10382 10379 10377 10374 10371 10369 10365 10362 10359 10355 10352 10349 10346 10342 10337 10334 10331 10327 10324 10320 10317 10314 10310 10306 10301 10297 10294 10290 10287 10283 10277 10272 10265 10260 10255 10251 10247 10243 10239 10233 10227 10221 10215 10208 10201 10194 10186 10178 10170 10162 10155 10149 10144 10139 10134 10128 10122 10116 10110 10107 10104 10100 10097 10094 10092 10089 10085 10082 10078 10074 10071 10068 10065 10063 10061 10060 10059 10058 10057 10056 10055 10055
10385 10384 10381 10379 10377 10374 10372 10369 10366 10363 10360 10357 10354 10350 10347 10344 10340 10337 10332 10329 10325 10322 10318 10314 10310 10308 10304 10300 10295 10290 10286 10283 10280 10277 10272 10265 10259 10253 10248 10243 10239 10235 10231 10227 10221 10215 10209 10202 10196 10189 10180 10171 10163 10155 10148 10142 10137 10132 10127 10121 10115 10109 10104 10099 10095 10092 10089 10085 10083 10080 10078 10075 10072 10069 10065 10062 10060 10057 10055 10054 10053 10052 10051 10050 10050 10049
10380 10379 10377 10374 10372 10369 10367 10364 10360 10357 10354 10351 10347 10344 10341 10337 10334 10330 10327 10323 10320 10316 10312 10309 10305 10301 10298 10294 10290 10284 10279 10275 10272 10269 10265 10259 10252 10246 10241 10236 10231 10226 10223 10220 10215 10209 10203 10196 10190 10182 10175 10165 10156 10147 10141 10135 10130 10125 10120 10115 10109 10104 10098 10093 10089 10085 10082 10078 10075 10073 10070 10067 10065 10062 10060 10057 10054 10052 10050 10049 10047 10046 10045 10045 10044 10044
10376 10374 10372 10369 10367 10364 10361 10358 10355 10352 10349 10345 10342 10339 10335 10332 10328 10325 10321 10317 10314 10310 10307 10302 10299 10295 10292 10289 10284 10280 10274 10269 10265 10262 10257 10252 10245 10239 10235 10230 10225 10220 10215 10212 10209 10204 10199 10192 10185 10177 10169 10160 10150 10141 10134 10129 10124 10119 10114 10109 10103 10098 10093 10088 10083 10079 10075 10072 10069 10066 10064 10061 10059 10056 10054 10051 10049 10047 10045 10043 10042 10041 10040 10040 10040 10040
10370 10369 10366 10364 10361 10358 10355 10352 10349 10346 10342 10339 10336 10333 10329 10325 10322 10319 10315 10312 10308 10304 10301 10297 10292 10289 10285 10281 10277 10274 10269 10264 10260 10255 10250 10245 10239 10233 10228 10224 10219 10214 10209 10204 10200 10197 10192 10187 10180 10173 10165 10156 10147 10137 10129 10122 10118 10114 10109 10103 10097 10092 10087 10083 10079 10074 10070 10067 10063 10060 10058 10055 10052 10050 10047 10045 10044 10042 10040 10038 10037 10036 10035 10035 10035 10035
10365 10363 10360 10358 10355 10352 10349 10346 10343 10340 10337 10334 10330 10327 10323 10320 10316 10312 10309 10305 10302 10299 10295 10291 10287 10283 10279 10274 10270 10265 10262 10257 10254 10249 10244 10239 10234 10227 10222 10217 10212 10207 10202 10198 10194 10189 10184 10179 10174 10167 10159 10150 10142 10134 10125 10118 10112 10107 10102 10097 10091 10086 10082 10077 10074 10070 10066 10062 10059 10055 10052 10050 10047 10044 10042 10040 10038 10037 10035 10034 10032 10032 10031 10031 10030 10031
10360 10357 10355 10352 10349 10346 10343 10340 10337 10334 10330 10327 10324 10321 10317 10314 10310 10306 10302 10299 10295 10292 10289 10285 10282 10278 10274 10269 10265 10259 10255 10250 10246 10242 10238 10233 10228 10222 10216 10211 10207 10202 10197 10192 10187 10182 10177 10172 10167 10160 10153 10144 10136 10129 10122 10115 10108 10102 10097 10092 10086 10080 10076 10072 10069 10065 10061 10057 10054 10050 10047 10044 10042 10039 10037 10035 10033 10032 10030 10029 10028 10027 10027 10027 10027 10027
10354 10352 10349 10346 10343 10340 10337 10334 10330 10327 10324 10321 10318 10315 10311 10307 10304 10300 10297 10294 10290 10286 10282 10279 10275 10272 10268 10264 10260 10255 10250 10245 10240 10236 10232 10227 10222 10217 10211 10205 10201 10196 10191 10185 10180 10176 10171 10166 10160 10154 10147 10139 10130 10122 10115 10110 10104 10099 10092 10087 10080 10075 10070 10067 10064 10060 10056 10052 10049 10046 10043 10040 10037 10034 10032 10030 10029 10027 10026 10025 10024 10023 10023 10023 10023 10023
10349 10346 10343 10340 10337 10334 10331 10327 10325 10322 10319 10315 10312 10309 10305 10302 10298 10294 10291 10287 10284 10280 10276 10272 10268 10264 10261 10257 10254 10250 10245 10240 10235 10230 10226 10222 10217 10212 10206 10200 10195 10190 10185 10179 10174 10169 10164 10159 10154 10147 10141 10134 10126 10118 10110 10104 10099 10094 10089 10082 10075 10069 10064 10061 10058 10055 10051 10047 10045 10042 10039 10035 10032 10030 10027 10025 10024 10023 10022 10020 10020 10019 10019 10019 10019 10019
10344 10340 10337 10335 10332 10329 10325 10322 10319 10316 10313 10310 10306 10303 10299 10295 10292 10289 10285 10282 10278 10274 10270 10266 10262 10257 10253 10250 10247 10243 10239 10235 10230 10225 10220 10215 10211 10206 10200 10195 10189 10183 10179 10173 10167 10162 10157 10152 10147 10140 10134 10127 10120 10114 10106 10099 10094 10089 10084 10079 10072 10066 10060 10056 10053 10050 10047 10043 10040 10037 10034 10031 10028 10026 10024 10022 10020 10019 10017 10017 10016 10015 10015 10015 10015 10015
10338 10335 10332 10329 10327 10324 10320 10317 10314 10310 10307 10304 10301 10297 10294 10290 10287 10283 10280 10276 10272 10268 10264 10260 10255 10251 10247 10242 10239 10235 10232 10228 10224 10219 10214 10209 10204 10199 10194 10188 10182 10176 10170 10165 10160 10155 10150 10145 10140 10135 10129 10122 10115 10108 10101 10095 10089 10084 10080 10075 10070 10064 10058 10053 10049 10045 10042 10039 10035 10033 10030 10027 10024 10022 10020 10018 10017 10015 10014 10013 10012 10012 10012 10012 10012 10012
10333 10330 10327 10324 10321 10318 10315 10312 10309 10305 10302 10299 10295 10292 10289 10285 10281 10277 10274 10270 10267 10263 10259 10254 10250 10245 10241 10237 10233 10229 10225 10221 10217 10212 10207 10202 10197 10192 10187 10181 10175 10169 10164 10158 10152 10148 10143 10137 10133 10128 10123 10117 10110 10103 10097 10090 10084 10079 10074 10070 10065 10060 10055 10049 10045 10041 10039 10035 10032 10029 10025 10023 10020 10018 10016 10014 10013 10012 10010 10010 10009 10009 10009 10009 10009 10009
10328 10325 10322 10319 10316 10313 10310 10307 10304 10300 10297 10294 10290 10286 10283 10279 10275 10272 10267 10264 10260 10256 10252 10249 10244 10239 10234 10230 10227 10224 10219 10215 10210 10205 10201 10195 10190 10185 10179 10174 10169 10163 10157 10151 10145 10141 10136 10131 10125 10120 10116 10110 10105 10098 10092 10085 10079 10074 10069 10065 10061 10057 10052 10047 10042 10037 10034 10031 10028 10025 10022 10019 10017 10015 10013 10011 10010 10009 10007 10007 10006 10005 10005 10005 10006 10006
10322 10320 10317 10314 10310 10308 10304 10302 10299 10295 10292 10289 10285 10282 10278 10274 10270 10267 10262 10258 10254 10250 10246 10242 10238 10233 10228 10223 10219 10215 10212 10209 10204 10199 10194 10189 10184 10178 10172 10167 10162 10157 10150 10145 10139 10134 10130 10125 10119 10114 10109 10104 10099 10093 10087 10080 10075 10069 10064 10060 10057 10053 10049 10045 10040 10035 10031 10027 10024 10022 10019 10016 10014 10012 10010 10008 10007 10005 10005 10004 10003 10003 10003 10003 10003 10004
10317 10314 10312 10309 10305 10303 10300 10297 10293 10290 10286 10283 10279 10276 10272 10269 10265 10262 10257 10253 10249 10245 10240 10237 10232 10228 10224 10219 10214 10209 10205 10201 10197 10194 10189 10184 10178 10172 10166 10160 10155 10150 10145 10139 10133 10127 10122 10118 10114 10109 10103 10097 10092 10087 10082 10076 10070 10065 10060 10055 10052 10048 10044 10040 10037 10033 10029 10025 10021 10018 10015 10013 10010 10009 10007 10005 10004 10003 10002 10001 10000 10000 10000 10000 10000 10001
10312 10309 10307 10304 10300 10298 10295 10291 10288 10284 10281 10277 10274 10270 10267 10264 10260 10257 10252 10248 10244 10240 10235 10232 10227 10223 10219 10214 10209 10204 10199 10195 10190 10187 10182 10178 10172 10167 10160 10155 10149 10144 10139 10134 10128 10122 10115 10110 10106 10102 10097 10092 10087 10082 10076 10070 10065 10060 10055 10050 10047 10043 10039 10035 10032 10029 10025 10022 10018 10015 10012 10010 10008 10006 10004 10003 10002 10000 9999 9999 9998 9998 9998 9998 9999 9999
10307 10304 10302 10299 10295 10292 10289 10286 10282 10279 10275 10272 10269 10265 10262 10258 10255 10251 10247 10243 10239 10234 10230 10227 10223 10218 10213 10209 10204 10200 10195 10190 10185 10181 10177 10172 10167 10162 10156 10150 10144 10139 10132 10127 10122 10117 10111 10105 10099 10095 10090 10087 10082 10077 10071 10065 10060 10055 10050 10046 10042 10039 10035 10032 10029 10025 10022 10019 10015 10012 10009 10007 10005 10004 10002 10000 9999 9998 9997 9996 9996 9995 9995 9996 9996 9997
10302 10299 10296 10294 10290 10287 10284 10280 10277 10274 10270 10267 10263 10260 10256 10253 10249 10245 10242 10239 10234 10229 10225 10222 10218 10214 10209 10204 10199 10195 10190 10185 10180 10175 10171 10166 10161 10156 10150 10145 10140 10134 10128 10122 10117 10111 10106 10100 10094 10089 10085 10081 10077 10072 10067 10061 10055 10050 10045 10042 10038 10035 10032 10028 10025 10022 10019 10015 10012 10009 10007 10005 10003 10001 9999 9998 9997 9995 9995 9994 9994 9994 9994 9994 9994 9995
10297 10294 10292 10289 10285 10282 10279 10275 10272 10269 10265 10261 10258 10254 10251 10248 10244 10240 10236 10233 10229 10225 10220 10216 10212 10208 10204 10199 10195 10190 10185 10180 10175 10171 10166 10162 10157 10151 10146 10140 10135 10130 10124 10119 10112 10106 10100 10094 10089 10083 10079 10075 10071 10067 10062 10057 10051 10046 10041 10037 10034 10031 10028 10024 10021 10018 10015 10012 10009 10007 10004 10002 10000 9999 9997 9996 9995 9994 9993 9992 9992 9992 9992 9992 9992 9993
10293 10290 10287 10284 10281 10277 10274 10270 10267 10264 10260 10257 10253 10249 10246 10243 10239 10235 10231 10227 10224 10220 10215 10211 10207 10203 10198 10194 10190 10185 10182 10177 10172 10168 10163 10158 10152 10147 10142 10136 10130 10125 10120 10114 10109 10102 10096 10090 10084 10078 10074 10069 10065 10062 10059 10054 10049 10042 10037 10034 10030 10027 10025 10022 10018 10015 10012 10010 10007 10004 10002 10000 9999 9997 9995 9994 9993 9992 9991 9990 9990 9990 9990 9990 9991 9992
10289 10285 10282 10280 10276 10273 10269 10266 10263 10259 10255 10252 10248 10244 10240 10237 10234 10231 10227 10222 10219 10215 10210 10207 10202 10198 10193 10189 10185 10180 10176 10172 10168 10164 10159 10155 10149 10144 10137 10132 10127 10121 10115 10110 10105 10099 10093 10086 10080 10075 10070 10065 10062 10058 10055 10052 10047 10041 10035 10031 10027 10024 10022 10019 10015 10013 10010 10007 10004 10002 10000 9998 9996 9995 9994 9992 9991 9990 9989 9989 9989 9989 9989 9989 9989 9990
10284 10282 10279 10275 10272 10269 10265 10262 10259 10255 10251 10247 10244 10240 10235 10232 10229 10225 10222 10218 10214 10210 10206 10202 10198 10194 10189 10184 10180 10175 10172 10167 10163 10159 10155 10150 10145 10139 10134 10129 10123 10117 10112 10107 10101 10095 10089 10082 10076 10070 10066 10062 10059 10055 10052 10048 10044 10039 10034 10029 10025 10022 10019 10016 10013 10010 10007 10005 10002 10000 9998 9996 9994 9993 9992 9990 9989 9989 9988 9987 9987 9987 9987 9987 9988 9989
10280 10277 10274 10271 10268 10264 10261 10257 10254 10250 10247 10243 10239 10235 10232 10227 10224 10220 10216 10212 10209 10205 10200 10197 10194 10189 10185 10180 10175 10171 10167 10163 10159 10154 10150 10145 10140 10135 10130 10124 10119 10114 10109 10104 10098 10092 10087 10080 10073 10066 10061 10058 10055 10052 10049 10044 10040 10036 10032 10027 10023 10019 10016 10013 10010 10008 10005 10002 10000 9998 9996 9994 9992 9991 9990 9989 9988 9987 9986 9985 9985 9985 9985 9986 9987 9987